{"data":{"norad_id":57604,"intl_designator":"2023-119C","name":"STARLINK-30218","alt_names":[],"object_type":"PAYLOAD","status":"ACTIVE","operator":null,"country":"US","launch_date":"2023-08-11","launch_site_code":"AFETR","launch_vehicle":null,"mission":null,"orbit_class":"UNKNOWN","rcs_meters":null,"size_class":null,"mass_kg":null,"dimensions":null,"purposes":["comms"],"wikipedia_slug":null,"has_3d_model":false,"image_url":null,"decayed_at":null,"tle_current":{"epoch":"2026-05-24T22:02:13.603200Z","epoch_age_seconds":82173,"freshness":"FRESH","line1":"1 57604U 23119C   26144.91821300 -.00003385  00000+0 -11353-3 0  9995","line2":"2 57604  43.0021  11.1624 0001283 271.8989  88.1715 15.27578678154744","mean_motion":15.27578678,"eccentricity":0.0001283,"inclination_deg":43.0021,"raan_deg":11.1624,"arg_perigee_deg":271.8989,"mean_anomaly_deg":88.1715,"bstar":-0.00011353,"rev_number":15474,"period_min":94.266830294158,"perigee_km":482.17276390209,"apogee_km":483.9333452701,"semimajor_km":6861.1900545861,"source":"CELESTRAK","updated_at":"2026-05-25T13:38:18.353935Z"}}}